Riverton, WY

3:23 AM MDT on September 24, 2017 (GMT -0600)
Riverton Regional

Weather History for KRIW - November, 2013

Change the Weather History Date:

Saturday, November 2, 2013

  Actual Average Record
Temperature  
Mean Temperature 41 °F 38 °F  
Max Temperature 55 °F 49 °F 67 °F (2008)
Min Temperature 26 °F 26 °F 0 °F (2002)
Degree Days  
Heating Degree Days 24 27  
Month to date heating degree days 47 54  
Since 1 July heating degree days 993 934  
Cooling Degree Days 0 0  
Month to date cooling degree days 0 0  
Year to date cooling degree days 798 494  
Moisture  
Dew Point 26 °F    
Average Humidity 58    
Maximum Humidity 81    
Minimum Humidity 35    
Precipitation  
Precipitation 0.00 in 0.02 in 0.03 in (2000)
Month to date precipitation 0.00 0.04  
Year to date precipitation 9.01 8.65  
Snow  
Snow 0.00 in - - ()
Month to date snowfall 0.0  
Since 1 July snowfall 24.8  
Since 1 September snowfall 24.8  
Snow Depth T in    
Sea Level Pressure  
Sea Level Pressure 29.92 in    
Wind  
Wind Speed 6 mph (ESE)    
Max Wind Speed 17 mph    
Max Gust Speed 20 mph    
Visibility 10 miles    
Events      
T = Trace of Precipitation, MM = Missing Value Source: NWS Daily Summary

Daily Weather History Graph

Daily Weather History Graph

Search for Another Location

Airport or City:

Trip Planner

Search our weather history database for the weather conditions in past years. The results will help you decide how hot, cold, wet, or windy it might be!

Date:

Astronomy

Nov. 02, 2013 Rise Set
Actual Time 7:50 AM MDT 6:04 PM MDT
Civil Twilight 7:20 AM MDT 6:33 PM MDT
Nautical Twilight 6:46 AM MDT 7:07 PM MDT
Astronomical Twilight 6:13 AM MDT 7:40 PM MDT
Moon 6:49 AM MDT (11/2) 5:38 PM MDT (11/2)
Length of Visible Light 11h 13m
Length of Day
10h 13m
Waning Crescent, 1% of the Moon is Illuminated
Nov 2
Waning Crescent
Nov 3
New
Nov 9
First Quarter
Nov 17
Full
Nov 25
Last Quarter

Hourly Weather History & Observations

Time (MDT) Temp. Windchill Dew Point Humidity Pressure Visibility Wind Dir Wind Speed Gust Speed Precip Events Conditions
12:53 AM 36.0 °F 27.1 °F 24.1 °F 62% 30.15 in 10.0 mi WNW 13.8 mph - N/A   Clear
1:53 AM 34.0 °F 24.2 °F 24.1 °F 67% 30.16 in 10.0 mi West 15.0 mph - N/A   Clear
2:53 AM 34.0 °F 28.0 °F 23.0 °F 64% 30.14 in 10.0 mi WSW 6.9 mph - N/A   Clear
3:53 AM 32.0 °F 24.2 °F 23.0 °F 69% 30.12 in 10.0 mi SSW 9.2 mph - N/A   Clear
4:53 AM 33.1 °F 26.1 °F 23.0 °F 66% 30.09 in 10.0 mi South 8.1 mph - N/A   Clear
5:53 AM 33.1 °F 27.7 °F 21.9 °F 64% 30.09 in 10.0 mi South 5.8 mph - N/A   Clear
6:53 AM 28.0 °F - 21.9 °F 78% 30.11 in 10.0 mi Calm Calm - N/A   Clear
7:53 AM 26.1 °F 21.9 °F 21.9 °F 84% 30.09 in 10.0 mi North 3.5 mph - N/A   Clear
8:53 AM 33.1 °F - 25.0 °F 72% 30.09 in 10.0 mi Calm Calm - N/A   Clear
9:53 AM 36.0 °F 32.1 °F 25.0 °F 64% 30.04 in 10.0 mi ENE 4.6 mph - N/A   Clear
10:53 AM 37.9 °F 35.5 °F 28.0 °F 68% 30.00 in 10.0 mi ENE 3.5 mph - N/A   Clear
11:53 AM 42.1 °F - 28.9 °F 60% 29.95 in 10.0 mi Calm Calm - N/A   Clear
12:53 PM 46.0 °F - 28.0 °F 50% 29.90 in 10.0 mi Calm Calm - N/A   Clear
1:53 PM 50.0 °F - 28.0 °F 43% 29.84 in 10.0 mi ENE 5.8 mph - N/A   Clear
2:53 PM 53.1 °F - 26.1 °F 35% 29.78 in 10.0 mi ENE 6.9 mph - N/A   Clear
3:53 PM 54.0 °F - 26.1 °F 34% 29.76 in 10.0 mi NE 4.6 mph - N/A   Clear
4:53 PM 53.1 °F - 28.9 °F 40% 29.73 in 10.0 mi ENE 4.6 mph - N/A   Clear
5:53 PM 46.9 °F - 30.9 °F 54% 29.73 in 10.0 mi NW 4.6 mph - N/A   Clear
6:53 PM 44.1 °F 39.0 °F 27.0 °F 51% 29.75 in 10.0 mi NW 9.2 mph - N/A   Clear
7:53 PM 43.0 °F 38.8 °F 28.0 °F 56% 29.75 in 10.0 mi South 6.9 mph - N/A   Clear
8:53 PM 44.1 °F 40.8 °F 28.9 °F 55% 29.71 in 10.0 mi ESE 5.8 mph - N/A   Clear
9:53 PM 39.0 °F 35.7 °F 25.0 °F 57% 29.71 in 10.0 mi East 4.6 mph - N/A   Clear
10:53 PM 39.0 °F 32.8 °F 25.0 °F 57% 29.69 in 10.0 mi SSW 9.2 mph - N/A   Clear
11:53 PM 41.0 °F 34.7 °F 26.1 °F 55% 29.65 in 10.0 mi South 10.4 mph - N/A   Clear